Time,TemperatureF,DewpointF,PressureIn,WindDirection,WindDirectionDegrees,WindSpeedMPH,WindSpeedGustMPH,Humidity,HourlyPrecipIn,Conditions,Clouds,dailyrainin,SoftwareType,DateUTC
2013-01-03 00:02:00,19.0,17.0,30.03,West,269,4.0,6.0,90,0.00,,,0.00,,2013-01-03 06:02:00,
2013-01-03 00:12:00,19.0,17.0,30.03,West,269,4.0,6.0,90,0.00,,,0.00,,2013-01-03 06:12:00,
2013-01-03 00:22:00,20.0,18.0,30.03,West,271,5.0,10.0,90,0.00,,,0.00,,2013-01-03 06:22:00,
2013-01-03 00:32:00,20.0,18.0,30.03,West,277,6.0,11.0,90,0.00,,,0.00,,2013-01-03 06:32:00,
2013-01-03 00:42:00,20.0,18.0,30.03,West,277,6.0,11.0,90,0.00,,,0.00,,2013-01-03 06:42:00,
2013-01-03 00:52:00,20.0,17.0,30.04,West,279,8.0,15.0,89,0.00,,,0.00,,2013-01-03 06:52:00,
2013-01-03 01:02:00,20.0,17.0,30.04,West,277,7.0,11.0,88,0.00,,,0.00,,2013-01-03 07:02:00,
2013-01-03 01:12:00,20.0,17.0,30.04,West,277,7.0,11.0,88,0.00,,,0.00,,2013-01-03 07:12:00,
2013-01-03 01:22:00,20.0,17.0,30.04,West,278,6.0,13.0,88,0.00,,,0.00,,2013-01-03 07:22:00,
2013-01-03 01:32:00,20.0,17.0,30.04,West,263,5.0,8.0,88,0.00,,,0.00,,2013-01-03 07:32:00,
2013-01-03 01:42:00,20.0,17.0,30.04,West,263,5.0,8.0,88,0.00,,,0.00,,2013-01-03 07:42:00,
2013-01-03 01:52:00,20.0,17.0,30.05,West,274,5.0,10.0,87,0.00,,,0.00,,2013-01-03 07:52:00,
2013-01-03 02:02:00,20.0,17.0,30.05,West,281,7.0,12.0,87,0.00,,,0.00,,2013-01-03 08:02:00,
2013-01-03 02:12:00,20.0,17.0,30.05,West,281,7.0,12.0,87,0.00,,,0.00,,2013-01-03 08:12:00,
2013-01-03 02:22:00,19.0,16.0,30.05,West,275,6.0,10.0,87,0.00,,,0.00,,2013-01-03 08:22:00,
2013-01-03 02:32:00,19.0,16.0,30.06,West,276,7.0,16.0,87,0.00,,,0.00,,2013-01-03 08:32:00,
2013-01-03 02:42:00,19.0,16.0,30.06,West,276,7.0,16.0,87,0.00,,,0.00,,2013-01-03 08:42:00,
2013-01-03 02:52:00,19.0,16.0,30.06,West,278,7.0,12.0,87,0.00,,,0.00,,2013-01-03 08:52:00,
2013-01-03 03:02:00,19.0,16.0,30.07,West,275,6.0,12.0,86,0.00,,,0.00,,2013-01-03 09:02:00,
2013-01-03 03:12:00,19.0,16.0,30.07,West,275,6.0,12.0,86,0.00,,,0.00,,2013-01-03 09:12:00,
2013-01-03 03:22:00,18.0,15.0,30.07,West,281,9.0,15.0,86,0.00,,,0.00,,2013-01-03 09:22:00,
2013-01-03 03:33:00,18.0,15.0,30.08,West,279,9.0,13.0,86,0.00,,,0.00,,2013-01-03 09:33:00,
2013-01-03 03:43:00,18.0,15.0,30.08,West,279,9.0,13.0,86,0.00,,,0.00,,2013-01-03 09:43:00,
2013-01-03 03:52:00,18.0,14.0,30.09,West,281,8.0,15.0,85,0.00,,,0.00,,2013-01-03 09:52:00,
2013-01-03 04:02:00,18.0,14.0,30.08,West,276,8.0,12.0,85,0.00,,,0.00,,2013-01-03 10:02:00,
2013-01-03 04:12:00,18.0,14.0,30.08,West,276,8.0,12.0,85,0.00,,,0.00,,2013-01-03 10:12:00,
2013-01-03 04:22:00,18.0,14.0,30.09,West,280,9.0,14.0,85,0.00,,,0.00,,2013-01-03 10:22:00,
2013-01-03 04:32:00,17.0,13.0,30.09,WNW,282,9.0,13.0,84,0.00,,,0.00,,2013-01-03 10:32:00,
2013-01-03 04:42:00,17.0,13.0,30.09,WNW,282,9.0,13.0,84,0.00,,,0.00,,2013-01-03 10:42:00,
2013-01-03 04:52:00,17.0,13.0,30.09,West,279,9.0,13.0,84,0.00,,,0.00,,2013-01-03 10:52:00,
2013-01-03 05:02:00,17.0,13.0,30.10,WNW,284,11.0,18.0,83,0.00,,,0.00,,2013-01-03 11:02:00,
2013-01-03 05:12:00,17.0,13.0,30.10,WNW,284,11.0,18.0,83,0.00,,,0.00,,2013-01-03 11:12:00,
2013-01-03 05:22:00,16.0,12.0,30.11,West,281,10.0,15.0,83,0.00,,,0.00,,2013-01-03 11:22:00,
2013-01-03 05:33:00,16.0,12.0,30.11,West,279,9.0,15.0,83,0.00,,,0.00,,2013-01-03 11:33:00,
2013-01-03 05:42:00,16.0,12.0,30.11,West,279,9.0,15.0,83,0.00,,,0.00,,2013-01-03 11:42:00,
2013-01-03 05:52:00,16.0,12.0,30.12,West,278,8.0,12.0,83,0.00,,,0.00,,2013-01-03 11:52:00,
2013-01-03 06:02:00,16.0,12.0,30.13,West,279,9.0,15.0,83,0.00,,,0.00,,2013-01-03 12:02:00,
2013-01-03 06:12:00,16.0,12.0,30.13,West,279,9.0,15.0,83,0.00,,,0.00,,2013-01-03 12:12:00,
2013-01-03 06:22:00,16.0,12.0,30.14,WNW,282,8.0,11.0,83,0.00,,,0.00,,2013-01-03 12:22:00,
2013-01-03 06:32:00,15.0,11.0,30.14,WNW,295,9.0,14.0,83,0.00,,,0.00,,2013-01-03 12:32:00,
2013-01-03 06:42:00,15.0,11.0,30.14,WNW,295,9.0,14.0,83,0.00,,,0.00,,2013-01-03 12:42:00,
2013-01-03 06:52:00,15.0,11.0,30.14,WNW,288,9.0,14.0,83,0.00,,,0.00,,2013-01-03 12:52:00,
2013-01-03 07:02:00,15.0,11.0,30.14,WNW,286,8.0,13.0,84,0.00,,,0.00,,2013-01-03 13:02:00,
2013-01-03 07:12:00,15.0,11.0,30.14,WNW,286,8.0,13.0,84,0.00,,,0.00,,2013-01-03 13:12:00,
2013-01-03 07:22:00,15.0,11.0,30.15,WNW,289,8.0,13.0,84,0.00,,,0.00,,2013-01-03 13:22:00,
2013-01-03 07:33:00,15.0,11.0,30.15,WNW,282,6.0,10.0,83,0.00,,,0.00,,2013-01-03 13:33:00,
2013-01-03 07:42:00,15.0,11.0,30.15,WNW,282,6.0,10.0,83,0.00,,,0.00,,2013-01-03 13:42:00,
2013-01-03 07:52:00,15.0,11.0,30.14,WNW,285,5.0,9.0,84,0.00,,,0.00,,2013-01-03 13:52:00,
2013-01-03 08:03:00,15.0,11.0,30.15,West,281,7.0,12.0,83,0.00,,,0.00,,2013-01-03 14:03:00,
2013-01-03 08:12:00,15.0,11.0,30.15,West,281,7.0,12.0,83,0.00,,,0.00,,2013-01-03 14:12:00,
2013-01-03 08:22:00,15.0,11.0,30.16,WNW,283,7.0,11.0,84,0.00,,,0.00,,2013-01-03 14:22:00,
2013-01-03 08:33:00,14.0,10.0,30.16,West,281,8.0,12.0,83,0.00,,,0.00,,2013-01-03 14:33:00,
2013-01-03 08:42:00,14.0,10.0,30.16,West,281,8.0,12.0,83,0.00,,,0.00,,2013-01-03 14:42:00,
2013-01-03 08:53:00,14.0,10.0,30.17,West,279,7.0,13.0,84,0.00,,,0.00,,2013-01-03 14:53:00,
2013-01-03 09:03:00,14.0,10.0,30.17,West,272,6.0,11.0,84,0.00,,,0.00,,2013-01-03 15:03:00,
2013-01-03 09:12:00,14.0,10.0,30.17,West,272,6.0,11.0,84,0.00,,,0.00,,2013-01-03 15:12:00,
2013-01-03 09:22:00,14.0,10.0,30.17,West,273,5.0,9.0,84,0.00,,,0.00,,2013-01-03 15:22:00,
2013-01-03 09:33:00,14.0,10.0,30.18,West,277,5.0,8.0,84,0.00,,,0.00,,2013-01-03 15:33:00,
2013-01-03 09:43:00,14.0,10.0,30.18,West,277,5.0,8.0,84,0.00,,,0.00,,2013-01-03 15:43:00,
2013-01-03 09:53:00,14.0,10.0,30.19,WNW,283,7.0,13.0,83,0.00,,,0.00,,2013-01-03 15:53:00,
2013-01-03 10:03:00,14.0,10.0,30.19,WNW,283,9.0,15.0,82,0.00,,,0.00,,2013-01-03 16:03:00,
2013-01-03 10:12:00,14.0,10.0,30.19,WNW,283,9.0,15.0,82,0.00,,,0.00,,2013-01-03 16:12:00,
2013-01-03 10:22:00,14.0,9.0,30.19,WNW,282,9.0,15.0,80,0.00,,,0.00,,2013-01-03 16:22:00,
2013-01-03 10:33:00,14.0,9.0,30.20,WNW,292,9.0,14.0,79,0.00,,,0.00,,2013-01-03 16:33:00,
2013-01-03 10:43:00,14.0,9.0,30.20,WNW,292,9.0,14.0,79,0.00,,,0.00,,2013-01-03 16:43:00,
2013-01-03 10:52:00,14.0,8.0,30.20,WNW,283,10.0,13.0,78,0.00,,,0.00,,2013-01-03 16:52:00,
2013-01-03 11:03:00,14.0,9.0,30.20,WNW,288,7.0,10.0,79,0.00,,,0.00,,2013-01-03 17:03:00,
2013-01-03 11:12:00,14.0,9.0,30.20,WNW,288,7.0,10.0,79,0.00,,,0.00,,2013-01-03 17:12:00,
2013-01-03 11:22:00,14.0,8.0,30.20,West,278,6.0,10.0,78,0.00,,,0.00,,2013-01-03 17:22:00,
2013-01-03 11:33:00,14.0,8.0,30.19,West,263,7.0,11.0,77,0.00,,,0.00,,2013-01-03 17:33:00,
2013-01-03 11:43:00,14.0,8.0,30.19,West,263,7.0,11.0,77,0.00,,,0.00,,2013-01-03 17:43:00,
2013-01-03 11:52:00,14.0,8.0,30.19,WSW,249,7.0,12.0,77,0.00,,,0.00,,2013-01-03 17:52:00,
2013-01-03 12:03:00,14.0,8.0,30.18,West,263,7.0,10.0,77,0.00,,,0.00,,2013-01-03 18:03:00,
2013-01-03 12:13:00,14.0,8.0,30.18,West,263,7.0,10.0,77,0.00,,,0.00,,2013-01-03 18:13:00,
2013-01-03 12:22:00,14.0,8.0,30.18,West,263,8.0,12.0,76,0.00,,,0.00,,2013-01-03 18:22:00,
2013-01-03 12:33:00,14.0,8.0,30.17,WSW,240,7.0,12.0,75,0.00,,,0.00,,2013-01-03 18:33:00,
2013-01-03 12:42:00,14.0,8.0,30.17,WSW,240,7.0,12.0,75,0.00,,,0.00,,2013-01-03 18:42:00,
2013-01-03 12:53:00,14.0,8.0,30.18,WSW,243,8.0,13.0,75,0.00,,,0.00,,2013-01-03 18:53:00,
2013-01-03 13:03:00,14.0,8.0,30.17,SW,236,7.0,13.0,75,0.00,,,0.00,,2013-01-03 19:03:00,
2013-01-03 13:12:00,14.0,8.0,30.17,SW,236,7.0,13.0,75,0.00,,,0.00,,2013-01-03 19:12:00,
2013-01-03 13:55:00,14.0,7.0,30.17,WSW,251,7.0,12.0,73,0.00,,,0.00,,2013-01-03 19:55:00,
2013-01-03 14:03:00,14.0,6.0,30.16,WSW,255,8.0,13.0,71,0.00,,,0.00,,2013-01-03 20:03:00,
2013-01-03 14:12:00,14.0,6.0,30.16,WSW,255,8.0,13.0,71,0.00,,,0.00,,2013-01-03 20:12:00,
2013-01-03 14:22:00,13.0,4.0,30.17,WSW,250,8.0,13.0,68,0.00,,,0.00,,2013-01-03 20:22:00,
2013-01-03 14:33:00,14.0,5.0,30.16,WSW,239,7.0,12.0,68,0.00,,,0.00,,2013-01-03 20:33:00,
2013-01-03 14:42:00,14.0,5.0,30.16,WSW,239,7.0,12.0,68,0.00,,,0.00,,2013-01-03 20:42:00,
2013-01-03 14:53:00,14.0,5.0,30.15,SW,220,7.0,13.0,66,0.00,,,0.00,,2013-01-03 20:53:00,
2013-01-03 15:02:00,14.0,4.0,30.16,WSW,243,8.0,15.0,65,0.00,,,0.00,,2013-01-03 21:02:00,
2013-01-03 15:12:00,14.0,4.0,30.16,WSW,243,8.0,15.0,65,0.00,,,0.00,,2013-01-03 21:12:00,
2013-01-03 15:22:00,15.0,6.0,30.16,SW,223,7.0,12.0,66,0.00,,,0.00,,2013-01-03 21:22:00,
2013-01-03 15:35:00,14.0,4.0,30.16,SW,232,9.0,15.0,65,0.00,,,0.00,,2013-01-03 21:35:00,
2013-01-03 15:48:00,14.0,4.0,30.16,SW,232,9.0,15.0,65,0.00,,,0.00,,2013-01-03 21:48:00,
2013-01-03 16:02:00,14.0,5.0,30.16,SSW,212,7.0,13.0,66,0.00,,,0.00,,2013-01-03 22:02:00,
2013-01-03 16:12:00,14.0,5.0,30.16,SSW,212,7.0,13.0,66,0.00,,,0.00,,2013-01-03 22:12:00,
2013-01-03 16:22:00,14.0,5.0,30.15,SSW,210,7.0,12.0,66,0.00,,,0.00,,2013-01-03 22:22:00,
2013-01-03 16:32:00,14.0,5.0,30.16,SSW,207,8.0,14.0,68,0.00,,,0.00,,2013-01-03 22:32:00,
2013-01-03 16:42:00,14.0,5.0,30.16,SSW,207,8.0,14.0,68,0.00,,,0.00,,2013-01-03 22:42:00,
2013-01-03 16:52:00,13.0,5.0,30.16,SW,235,8.0,14.0,69,0.00,,,0.00,,2013-01-03 22:52:00,
2013-01-03 17:02:00,13.0,5.0,30.16,SW,218,5.0,11.0,70,0.00,,,0.00,,2013-01-03 23:02:00,
2013-01-03 17:12:00,13.0,5.0,30.16,SW,218,5.0,11.0,70,0.00,,,0.00,,2013-01-03 23:12:00,
2013-01-03 17:22:00,12.0,4.0,30.16,SSW,211,5.0,9.0,71,0.00,,,0.00,,2013-01-03 23:22:00,
2013-01-03 17:32:00,12.0,5.0,30.16,SSW,204,6.0,10.0,73,0.00,,,0.00,,2013-01-03 23:32:00,
2013-01-03 17:42:00,12.0,5.0,30.16,SSW,204,6.0,10.0,73,0.00,,,0.00,,2013-01-03 23:42:00,
2013-01-03 17:52:00,12.0,5.0,30.15,SSW,209,7.0,11.0,74,0.00,,,0.00,,2013-01-03 23:52:00,
2013-01-03 18:03:00,11.0,5.0,30.15,SSW,207,6.0,11.0,76,0.00,,,0.00,,2013-01-04 00:03:00,
2013-01-03 18:12:00,11.0,5.0,30.15,SSW,207,6.0,11.0,76,0.00,,,0.00,,2013-01-04 00:12:00,
2013-01-03 18:22:00,11.0,5.0,30.14,SW,217,6.0,11.0,77,0.00,,,0.00,,2013-01-04 00:22:00,
2013-01-03 18:32:00,12.0,7.0,30.13,SSW,206,7.0,11.0,79,0.00,,,0.00,,2013-01-04 00:32:00,
2013-01-03 18:42:00,12.0,7.0,30.13,SSW,206,7.0,11.0,79,0.00,,,0.00,,2013-01-04 00:42:00,
2013-01-03 18:52:00,12.0,6.0,30.12,South,191,8.0,14.0,78,0.00,,,0.00,,2013-01-04 00:52:00,
2013-01-03 19:02:00,11.0,6.0,30.11,SSW,193,9.0,14.0,78,0.00,,,0.00,,2013-01-04 01:02:00,
2013-01-03 19:12:00,11.0,6.0,30.11,SSW,193,9.0,14.0,78,0.00,,,0.00,,2013-01-04 01:12:00,
2013-01-03 19:22:00,11.0,6.0,30.11,SSW,194,10.0,15.0,79,0.00,,,0.00,,2013-01-04 01:22:00,
2013-01-03 19:32:00,11.0,6.0,30.11,SSW,198,10.0,18.0,80,0.00,,,0.00,,2013-01-04 01:32:00,
2013-01-03 19:42:00,11.0,6.0,30.11,SSW,198,10.0,18.0,80,0.00,,,0.00,,2013-01-04 01:42:00,
2013-01-03 19:52:00,10.0,5.0,30.09,South,191,9.0,15.0,81,0.00,,,0.00,,2013-01-04 01:52:00,
2013-01-03 20:02:00,10.0,5.0,30.09,SSW,193,9.0,14.0,81,0.00,,,0.00,,2013-01-04 02:02:00,
2013-01-03 20:12:00,10.0,5.0,30.09,SSW,193,9.0,14.0,81,0.00,,,0.00,,2013-01-04 02:12:00,
2013-01-03 20:22:00,10.0,6.0,30.08,SSW,196,9.0,14.0,82,0.00,,,0.00,,2013-01-04 02:22:00,
2013-01-03 20:32:00,10.0,6.0,30.07,South,191,9.0,18.0,83,0.00,,,0.00,,2013-01-04 02:32:00,
2013-01-03 20:42:00,10.0,6.0,30.07,South,191,9.0,18.0,83,0.00,,,0.00,,2013-01-04 02:42:00,
2013-01-03 20:52:00,10.0,6.0,30.08,SSW,199,10.0,15.0,83,0.00,,,0.00,,2013-01-04 02:52:00,
2013-01-03 21:02:00,10.0,6.0,30.07,SSW,197,9.0,15.0,83,0.00,,,0.00,,2013-01-04 03:02:00,
2013-01-03 21:12:00,10.0,6.0,30.07,SSW,197,9.0,15.0,83,0.00,,,0.00,,2013-01-04 03:12:00,
2013-01-03 21:22:00,10.0,6.0,30.06,SSW,193,8.0,13.0,84,0.00,,,0.00,,2013-01-04 03:22:00,
2013-01-03 21:32:00,10.0,6.0,30.06,SSW,192,9.0,14.0,84,0.00,,,0.00,,2013-01-04 03:32:00,
2013-01-03 21:42:00,10.0,6.0,30.06,SSW,192,9.0,14.0,84,0.00,,,0.00,,2013-01-04 03:42:00,
2013-01-03 21:52:00,10.0,6.0,30.06,South,179,7.0,13.0,84,0.00,,,0.00,,2013-01-04 03:52:00,
2013-01-03 22:02:00,10.0,6.0,30.05,SSW,193,7.0,11.0,85,0.00,,,0.00,,2013-01-04 04:02:00,
2013-01-03 22:12:00,10.0,6.0,30.05,SSW,193,7.0,11.0,85,0.00,,,0.00,,2013-01-04 04:12:00,
2013-01-03 22:22:00,10.0,6.0,30.05,South,188,6.0,10.0,85,0.00,,,0.00,,2013-01-04 04:22:00,
2013-01-03 22:32:00,10.0,6.0,30.04,South,190,7.0,12.0,85,0.00,,,0.00,,2013-01-04 04:32:00,
2013-01-03 22:42:00,10.0,6.0,30.04,South,190,7.0,12.0,85,0.00,,,0.00,,2013-01-04 04:42:00,
2013-01-03 22:52:00,10.0,7.0,30.03,SSW,193,7.0,11.0,86,0.00,,,0.00,,2013-01-04 04:52:00,
2013-01-03 23:03:00,11.0,8.0,30.03,South,190,8.0,15.0,86,0.00,,,0.00,,2013-01-04 05:03:00,
2013-01-03 23:12:00,11.0,8.0,30.03,South,190,8.0,15.0,86,0.00,,,0.00,,2013-01-04 05:12:00,
2013-01-03 23:22:00,12.0,9.0,30.02,South,188,8.0,14.0,86,0.00,,,0.00,,2013-01-04 05:22:00,
2013-01-03 23:33:00,12.0,9.0,30.01,SSW,192,9.0,16.0,86,0.00,,,0.00,,2013-01-04 05:33:00,
2013-01-03 23:42:00,12.0,9.0,30.01,SSW,192,9.0,16.0,86,0.00,,,0.00,,2013-01-04 05:42:00,
2013-01-03 23:52:00,13.0,10.0,30.00,South,187,10.0,17.0,86,0.00,,,0.00,,2013-01-04 05:52:00,